CYKL

Schefferville Airport

ICAO Code CYKL
IATA Code YKL
Name Schefferville Airport
Location Schefferville, Quebec, CA
Elevation 1709 Feet / 520.9 Meters
Latitude 54.80527778
Longitude -66.80527778
METAR CYKL 260518Z AUTO 32004KT 9SM SCT013 M02/M03 A3006 RMK SLP211
Extra information Display Charts and CFS
Display NOTAMS
Runway Length Width Surface Elevation
17 5002 ft 150 ft ASP 1688 ft
35 5002 ft 150 ft ASP 1698 ft